Regional Weather Roundup
Issued by NWS

Home | Current Version | Previous Version | Text Only | Print | Product List | Glossary On
Versions: 1 2 3 4 5 6 7 8 9 10 11 12 13 14 15 16 17 18 19 20 21 22 23 24 25 26 27 28 29 30 31 32 33 34 35 36 37 38 39 40 41 42 43 44 45 46 47 48 49 50
000
ASUS43 KMKX 171311
RWRWI

WISCONSIN REGIONAL WEATHER ROUNDUP
NATIONAL WEATHER SERVICE MILWAUKEE/SULLIVAN WI
700 AM CST TUE JAN 17 2017

NOTE: "FAIR" INDICATES FEW OR NO CLOUDS BELOW 12,000 FEET WITH NO
SIGNIFICANT WEATHER AND/OR OBSTRUCTIONS TO VISIBILITY.

WIZ001-002-006>008-014>016-023>028-171400-
NORTHWEST WISCONSIN

CITY           SKY/WX    TMP DP  RH WIND       PRES   REMARKS
SUPERIOR ARPT  CLOUDY    21  18  88 CALM      29.96S
ASHLAND        MOCLDY    21  19  92 CALM      29.94
HAYWARD        CLOUDY    29  22  75 NE3       29.92S
SIREN          CLOUDY    29  22  76 CALM      29.93F
CUMBERLAND     LGT RAIN  32  30  93 NE5       29.90F WCI  27
RICE LAKE      MIX PCPN  33  32  96 N7        29.92S WCI  27
CHETEK         MIX PCPN  32  32 100 NW3       29.90S
LADYSMITH      LGT RAIN  34  33  96 N9        29.90F WCI  27
EAU CLAIRE     LGT SNOW  33  32  96 N6        29.89S FOG     WCI  28
MENOMONIE      RAIN      33  33 100 NW3       29.90S
NEW RICHMOND   CLOUDY    32  32 100 N6        29.93R FOG     WCI  26
OSCEOLA        CLOUDY    31  31 100 NW5       29.97R WCI  26
$$

WIZ003>005-009-010-017-018-171400-
NORTH CENTRAL WISCONSIN

CITY           SKY/WX    TMP DP  RH WIND       PRES   REMARKS
MANITOWISH WTR MIX PCPN  29  25  86 CALM      29.89F
ARBOR VITAE    CLOUDY    32  29  90 N5        29.89S WCI  27
WOODRUFF       CLOUDY    32  29  90 N5        29.89S WCI  27
RHINELANDER    CLOUDY    31  29  92 NE7       29.88S WCI  24
EAGLE RIVER    CLOUDY    29  24  79 NE5       29.88S WCI  24
LAND O LAKES   CLOUDY    29  21  73 CALM      29.91S
PHILLIPS       LGT SNOW  31  31 100 N6        29.89S WCI  25
TOMAHAWK       DRIZZLE   31  29  94 NE3       29.88F
MEDFORD        MIX PCPN  32  31  98 NE6       29.85S WCI  26
MERRILL        MIX PCPN  32  32 100 NE5         N/A  WCI  28
$$

WIZ029-030-035-036-043>047-171400-
CENTRAL WISCONSIN

CITY           SKY/WX    TMP DP  RH WIND       PRES   REMARKS
WAUSAU         CLOUDY    33  32  96 N5        29.84S WCI  29
MOSINEE        FRZ DRZL  32  32 100 NE5       29.85S WCI  27
MARSHFIELD     CLOUDY    33  31  92 N7        29.84R FOG     WCI  27
STEVENS POINT  CLOUDY    31  31 100 N6        29.84S FOG     WCI  25
WAUPACA        DRIZZLE   34  32  94 CALM      29.85S
WAUTOMA        CLOUDY    33  32  96 NE7       29.84S WCI  27
WISC RAPIDS    CLOUDY    33  33 100 N5        29.85S WCI  29
CAMP DOUGLAS   CLOUDY    32  32 100 NW3       29.85R FOG
$$

WIZ011>013-019>022-031-037>040-048>050-171400-
NORTHEAST WISCONSIN

CITY           SKY/WX    TMP DP  RH WIND       PRES   REMARKS
ANTIGO         MIX PCPN  32  32 100 NE7       29.85S WCI  26
SHAWANO        LGT RAIN  34  32  93 CALM      29.86S
OCONTO         CLOUDY    32  32  99 NE5       29.85S WCI  27
STURGEON BAY   CLOUDY    35  34  96 NE10      29.84S FOG     WCI  27
GREEN BAY      CLOUDY    35  34  96 N10       29.84R FOG     WCI  27
MANITOWOC      CLOUDY    36  35  96 MISG      29.82R FOG
APPLETON       DRIZZLE   32  32 100 N8        29.82R FOG     WCI  25
CLINTONVILLE   MIX PCPN  32  32 100 NE6       29.85F WCI  26
OSHKOSH        CLOUDY    33  32  96 N10       29.82S FOG     WCI  25
$$

WIZ032>034-041-042-053>061-171400-
SOUTHWEST WISCONSIN

CITY           SKY/WX    TMP DP  RH WIND       PRES   REMARKS
LA CROSSE      CLOUDY    36  33  89 NW8       29.87S FOG     WCI  30
SPARTA         CLOUDY    32  32 100 CALM      29.87S FOG
VIROQUA        CLOUDY    32  32 100 CALM      29.84R
BOSCOBEL       CLOUDY    34  33  96 NW3       29.86S FOG
PRAIRIE DU CHI CLOUDY    33  32  97 CALM      29.86S FOG
PLATTEVILLE    CLOUDY    33  33 100 NW7       29.84R VSB 1/2 WCI  27
$$

WIZ056-057-062-063-064-067-068-171400-
SOUTH CENTRAL WISCONSIN

CITY           SKY/WX    TMP DP  RH WIND       PRES   REMARKS
REEDSBURG      CLOUDY    32  32 100 CALM      29.84R
BARABOO/DELLS  CLOUDY    32  32 100 CALM      29.82S FOG
LONE ROCK      CLOUDY    34  32  92 CALM      29.85R FOG
MINERAL POINT  FOG       34  34 100 NW5       29.82R VSB 1/4 WCI  30
MADISON        FOG       33  33 100 N6        29.82S VSB 1/2 WCI  28
MIDDLETON      CLOUDY    34  34 100 N5        29.81F WCI  30
WATERTOWN      DRIZZLE   33  33 100 NW3       29.81R
MONROE         FOG       32  32 100 N3        29.80S VSB 1/2
JANESVILLE     CLOUDY    36  36 100 NW3       29.80R
$$

WIZ051-052-058>065-066-070>072-171400-
SOUTHEAST WISCONSIN

CITY           SKY/WX    TMP DP  RH WIND       PRES   REMARKS
MILWAUKEE      DRZL/FOG  38  36  92 NW9       29.79R VSB 1/2 WCI  31
WAUKESHA       CLOUDY    34  34 100 NW5       29.80R FOG     WCI  30
MILWAUKEE/TIMM CLOUDY    34  32  93 NW7       29.80R FOG     WCI  28
RACINE         FOG       36  35  96 NW9       29.79R VSB 3/4 WCI  29
KENOSHA        FOG       36  35  96 NW8       29.77R VSB 1/4 WCI  30
FOND DU LAC    MIX PCPN  33  31  92 N8        29.82R FOG     WCI  26
SHEBOYGAN      FOG       35  34  96 N5        29.80R VSB 1/2 WCI  31
WEST BEND      CLOUDY    34  34 100 N5        29.80R FOG     WCI  30
JUNEAU         DRIZZLE   33  32  98 N7        29.82R WCI  27
$$

LSZ147-162-171400-
LAKE SUPERIOR

STATION/POSITION TIME  TEMP    WIND        PRES    WAVE
                       AIR SEA DIR/SP/G            HT/PER
                 (UTC) (F)     (DEG/KT/KT) (MB)    (FT/S)
DEVILS ISLAND    1200   34      50/  8/  9 1015.0F
PORT WING        1240   21     160/  4/  4 1014.6S
SAXON HARBOR     1230   24     210/  2/  5 1013.9S
$$

LMZ867-665-643>646-171400-
LAKE MICHIGAN

STATION/POSITION TIME  TEMP    WIND        PRES    WAVE
                       AIR SEA DIR/SP/G            HT/PER
                 (UTC) (F)     (DEG/KT/KT) (MB)    (FT/S)
NORTHPORT PIER   1240   34      50/ 15/ 21 1011.5S
SISTER BAY       1250   35      10/  9/ 15   N/A
KEWAUNEE LAKESHO 1242   35      40/  8/ 11 1009.3F
SHEBOYGAN LAKESH 1300   35     350/  8/  8 1009.3R
PORT WASHINGTON  1240   36     330/  4/  6 1009.8R
MILWAUKEE LAKESH 1250   36     340/  8/ 10   N/A
KENOSHA   LAKESH 1200   37     330/  8/ 11 1007.8
$$

TC  - TEMPERATURE IN CELSIUS
VSB - VISIBILITY IN STATUTE MILES
WCI - WIND CHILL INDEX
HX  - HEAT INDEX




USA.gov is the U.S. government's official web portal to all federal, state and local government web resources and services.